This demonstration page uses our WeatherBlox Daily Observations layout. Learn more.

38.89511, -77.03637

Hourly Observations for August 16, 2019

Temp ( °F °C ) Dew Point ( °F °C ) Humidity (%) Winds ( mph kmh ) Pressure ( in mb ) Visibility ( mi km ) Precip ( " mm )
12:52 am 00:52 Partly Cloudy 76 24.4 71 21.7 85 85 ESE 5 7 29.97 1015 10 16.09344 0 0
1:52 am 01:52 Partly Cloudy 75 23.9 70 21.1 84 84 S 5 7 29.97 1015 10 16.09344 0 0
2:52 am 02:52 Partly Cloudy 75 23.9 70 21.1 84 84 E 3 6 29.97 1015 10 16.09344 0 0
3:52 am 03:52 Partly Cloudy 74 23.3 70 21.1 88 88 Calm 29.94 1014 10 16.09344 0 0
4:52 am 04:52 Mostly Cloudy 74 23.3 70 21.1 88 88 ENE 3 6 29.94 1014 10 16.09344 0 0
5:05 am 05:05 Mostly Cloudy 74 23.3 70 21.1 88 88 ENE 5 7 29.97 1015 10 16.09344 0 0
5:26 am 05:26 Partly Cloudy 74 23.3 71 21.7 91 91 ENE 7 11 29.97 1015 10 16.09344 0 0
5:46 am 05:46 Mostly Cloudy 73 23 72 22 94 94 ENE 8 13 29.97 1015 10 16.09344 0 0
5:52 am 05:52 Mostly Cloudy 74 23.3 71 21.7 91 91 ENE 7 11 29.97 1015 10 16.09344 0 0
6:00 am 06:00 Partly Cloudy 74 23.3 70 21.1 88 88 ENE 8 13 29.97 1015 10 16.09344 0 0
6:20 am 06:20 Mostly Cloudy 74 23.3 70 21.1 88 88 ENE 8 13 30 1016 10 16.09344 0 0
6:28 am 06:28 Mostly Cloudy 74 23.3 71 21.7 91 91 NE 7 11 30 1016 10 16.09344 0 0
6:52 am 06:52 Cloudy 74 23.3 71 21.7 91 91 NE 7 11 29.97 1015 10 16.09344 0 0
7:52 am 07:52 Cloudy 75 23.9 71 21.7 88 88 E 5 7 29.97 1015 10 16.09344 0 0
8:52 am 08:52 Mostly Cloudy 77 25 72 22.2 85 85 ENE 6 9 29.97 1015 10 16.09344 0 0
9:52 am 09:52 Mostly Cloudy 79 26.1 71 21.7 77 77 SE 7 11 30 1016 10 16.09344 0 0
10:52 am 10:52 Mostly Cloudy 81 27.2 71 21.7 72 72 Calm 30 1016 10 16.09344 0 0
11:31 am 11:31 Mostly Cloudy 82 27.8 71 21.7 69 69 Calm 30.03 1017 10 16.09344 0 0
11:52 am 11:52 Mostly Cloudy 82 27.8 71 21.7 69 69 Calm 30 1016 10 16.09344 0 0
12:52 pm 12:52 Mostly Cloudy 84 28.9 71 21.7 65 65 VRB 3 6 29.97 1015 10 16.09344 0 0
1:52 pm 13:52 Mostly Cloudy 86 30 72 22.2 63 63 SE 3 6 29.97 1015 10 16.09344 0 0
2:52 pm 14:52 Mostly Cloudy 87 30.6 71 21.7 59 59 Calm 29.97 1015 10 16.09344 0 0
3:52 pm 15:52 Mostly Cloudy 89 31.7 71 21.7 55 55 Calm 29.94 1014 10 16.09344 0 0
4:48 pm 16:48 Mostly Cloudy with Nearby Thunderstorms 90 32 72 22 55 55 S 8 13 29.97 1015 10 16.09344 0 0
4:52 pm 16:52 Mostly Cloudy with Nearby Thunderstorms 89 31.7 71 21.7 55 55 SSW 8 13 29.94 1014 10 16.09344 0 0
5:06 pm 17:06 Mostly Cloudy 89 31.7 71 21.7 55 55 SSW 8 13 29.97 1015 10 16.09344 0 0
5:52 pm 17:52 Mostly Cloudy 87 30.6 72 22.2 61 61 S 8 13 29.94 1014 10 16.09344 0 0
6:52 pm 18:52 Mostly Cloudy 86 30 72 22.2 63 63 S 10 17 29.94 1014 10 16.09344 0 0
7:52 pm 19:52 Partly Cloudy 83 28.3 71 21.7 67 67 SSE 9 15 29.94 1014 10 16.09344 0 0
8:52 pm 20:52 Partly Cloudy 81 27.2 72 22.2 74 74 S 6 9 29.94 1014 10 16.09344 0 0
9:52 pm 21:52 Partly Cloudy 80 26.7 73 22.8 79 79 S 6 9 29.97 1015 10 16.09344 0 0
10:52 pm 22:52 Partly Cloudy 80 26.7 72 22.2 76 76 Calm 29.97 1015 10 16.09344 0 0
11:52 pm 23:52 Mostly Clear 79 26.1 72 22.2 79 79 SE 5 7 29.97 1015 10 16.09344 0 0

Powered by AerisWeather